Wind_Speed
22 22 22 22 22 22 22 21 21 21 21 20 21 20 20 19 19 18 17 17 16 16 15 15 15 14 14 14 14 13 14 14 14 14 14 14 14 13 12 11 11 12 12 12 12 12 12 12 12 12 12 12 12 13 13 12 12 12 12 13 13 13 14 14 14 14 15 15 15
23 23 23 23 23 23 23 22 22 22 22 21 21 21 21 20 19 18 17 17 17 16 16 16 15 15 14 14 13 13 13 14 14 15 15 15 14 13 12 12 12 12 13 13 12 12 12 12 12 12 12 12 13 13 13 13 13 13 13 13 14 14 14 14 14 15 15 15 15
24 24 24 24 24 24 24 23 23 23 22 22 22 22 21 20 19 18 18 18 17 17 17 16 16 15 14 13 13 13 13 14 14 15 15 15 15 14 13 13 13 13 13 13 13 12 12 12 12 12 13 13 13 13 13 13 13 14 14 14 14 14 15 15 15 15 15 15 15
25 25 25 25 25 24 24 24 23 23 22 22 22 22 21 21 20 19 19 18 18 18 17 17 16 15 14 14 13 13 14 14 14 15 15 15 15 14 13 13 13 13 13 13 13 13 12 12 12 13 13 13 14 14 14 14 14 14 14 15 15 15 15 15 15 15 15 15 15
26 26 25 25 25 25 24 24 24 23 23 23 23 23 22 21 21 20 19 19 18 18 17 17 16 16 15 14 14 14 14 15 15 15 15 15 15 14 14 14 14 14 14 14 13 13 13 13 13 13 14 14 14 15 15 14 14 14 15 15 15 15 15 15 15 15 15 15 15
27 27 26 26 26 25 25 25 24 24 24 24 24 23 23 22 21 21 20 19 19 18 18 17 17 16 16 15 15 15 15 15 15 15 15 15 15 15 14 14 14 14 14 14 14 14 14 14 14 14 14 15 15 15 15 15 15 15 15 15 15 15 15 15 14 14 15 15 15
28 28 27 27 26 26 26 25 25 25 24 24 24 24 23 22 22 21 20 20 19 19 19 18 17 17 17 16 16 16 16 15 15 15 15 15 15 15 15 15 15 15 15 15 15 15 15 15 15 15 15 15 15 15 15 15 15 15 15 15 15 15 15 15 14 14 15 15 15
29 29 28 27 27 27 27 26 26 26 25 25 25 24 24 23 22 21 21 20 20 20 19 19 18 18 17 17 17 16 16 16 16 15 15 15 15 15 15 15 15 15 15 15 15 15 15 15 15 16 16 15 15 16 15 15 15 15 15 15 15 15 15 15 14 15 15 15 15
30 29 29 28 28 28 27 27 27 26 26 26 25 25 24 24 23 22 21 21 20 20 20 20 19 18 18 17 17 17 17 16 16 16 16 16 16 16 16 16 16 16 16 16 16 16 16 16 16 16 16 16 16 16 15 15 15 15 15 15 15 15 15 15 15 15 15 15 16
30 29 29 29 29 28 28 28 28 27 27 27 26 26 25 24 24 23 22 21 21 21 21 20 20 19 19 18 18 17 17 17 17 17 17 17 17 17 16 16 16 16 16 16 16 16 16 16 16 16 16 16 16 15 15 15 15 15 15 15 15 15 15 15 15 15 15 16 16
29 29 29 29 29 29 29 29 29 28 28 28 27 27 26 26 25 23 22 22 22 22 22 21 21 20 19 18 18 18 18 18 17 17 17 17 17 17 17 16 16 16 16 16 16 16 16 16 16 16 16 15 15 15 15 15 14 14 15 15 15 15 15 15 15 15 15 15 16
29 29 29 29 29 29 29 29 29 29 29 29 28 28 27 26 25 24 23 23 23 23 22 22 21 20 20 19 19 19 19 18 18 18 17 17 17 17 17 17 16 16 16 16 16 16 15 15 15 15 15 15 15 15 15 14 14 14 14 15 15 15 15 15 15 15 15 15 15
29 29 29 30 30 30 30 30 30 30 30 30 29 29 28 27 26 25 24 24 24 23 23 22 22 21 20 20 19 19 19 19 18 18 18 18 17 17 17 17 16 16 16 16 15 15 15 15 14 15 15 15 14 14 14 14 13 13 13 14 14 14 14 14 14 14 14 14 14
29 29 29 30 30 31 31 31 31 31 31 31 30 29 29 28 27 26 25 25 24 24 24 23 22 21 21 20 20 20 19 19 18 18 18 18 18 17 17 17 16 16 16 15 15 15 14 14 14 14 14 14 14 13 13 13 12 12 12 12 13 13 13 13 13 13 13 13 14
29 29 29 30 30 31 31 32 32 32 32 32 31 30 29 28 27 27 26 25 25 25 24 24 23 22 21 21 20 20 19 19 19 18 18 18 18 17 17 17 16 16 15 15 14 14 14 13 13 13 13 13 12 12 12 11 11 11 11 11 11 12 12 12 12 12 12 13 13
29 29 29 30 30 31 32 32 32 33 33 32 32 31 30 29 28 27 27 26 26 25 25 24 23 23 22 21 21 20 20 19 19 19 18 18 17 17 17 16 16 15 15 14 14 13 13 13 12 12 12 12 11 11 11 11 10 10 10 10 11 11 11 11 12 12 12 12 13
29 29 30 30 31 31 32 32 33 33 33 32 32 31 30 30 29 28 28 27 27 26 26 25 24 23 22 22 21 20 20 19 19 19 18 18 17 17 16 16 15 15 14 13 13 13 12 12 12 12 11 11 11 11 10 10 10 10 10 10 11 11 11 11 12 12 12 12 13
30 30 30 31 31 31 32 32 32 33 33 32 32 31 31 30 29 29 28 28 27 27 26 25 25 24 23 22 21 21 20 20 19 18 18 17 17 16 16 15 15 14 14 13 13 12 12 12 12 12 11 11 11 11 11 11 11 11 11 11 11 12 12 12 12 12 13 13 13
30 30 31 31 31 31 31 32 32 32 32 32 32 32 31 31 30 30 29 29 28 27 27 26 25 24 23 22 21 21 20 20 19 18 18 17 17 16 16 15 15 14 14 13 13 12 12 12 12 12 12 12 12 12 12 12 12 13 13 13 13 13 13 13 13 14 14 14 14
29 30 31 31 31 31 31 31 32 32 32 32 32 32 32 31 31 30 30 29 28 28 27 26 25 24 23 22 22 21 20 20 19 18 18 18 17 17 16 15 15 14 14 14 13 13 13 13 13 13 13 13 13 13 14 14 14 14 14 14 14 14 15 15 15 15 15 15 15
29 30 30 30 31 31 31 31 31 31 32 32 32 32 32 31 31 31 30 29 28 28 27 26 25 25 24 23 22 21 20 20 19 19 18 18 17 17 16 16 15 15 15 14 14 14 14 14 14 14 14 14 14 15 15 15 16 16 16 16 16 16 16 16 16 16 16 16 16
28 29 30 30 31 31 31 31 31 32 32 32 32 32 32 32 31 31 30 29 28 28 27 26 26 25 24 23 22 21 20 20 19 19 19 18 18 17 17 16 16 16 16 15 15 15 15 15 15 15 15 16 16 16 17 17 17 18 18 18 18 18 18 18 18 18 18 18 18
28 29 30 31 31 32 32 32 32 32 32 32 32 33 32 32 32 31 30 29 29 28 27 27 26 25 24 23 22 22 21 20 20 20 19 19 19 18 18 18 17 17 17 17 17 17 17 17 17 17 17 18 18 18 19 19 19 20 20 20 20 20 20 20 20 20 20 20 20
28 29 30 31 32 32 33 33 33 33 33 33 33 33 32 32 32 31 30 30 29 29 28 27 27 26 25 24 23 22 22 21 21 20 20 20 19 19 19 19 18 18 18 18 18 18 18 19 19 19 19 19 20 20 21 21 21 21 22 22 22 22 22 22 22 22 22 22 21
28 29 30 31 32 33 34 34 34 34 33 33 33 32 32 32 32 31 31 30 30 29 28 28 27 26 25 24 24 23 22 22 22 21 21 21 20 20 20 20 20 20 20 20 20 20 20 20 20 21 21 21 22 22 23 23 23 23 23 23 24 24 24 24 24 24 23 23 23
28 29 30 31 32 33 34 35 34 34 33 33 33 33 33 32 32 32 31 31 30 29 29 28 28 27 26 25 24 24 23 23 22 22 22 21 21 21 21 21 21 21 21 21 21 21 21 21 22 22 22 23 23 24 24 24 24 25 25 25 25 25 25 25 25 25 25 24 24
29 30 30 31 32 33 34 35 35 34 34 34 33 33 33 32 32 32 31 31 30 30 29 29 28 28 27 26 25 25 24 24 23 23 23 22 22 22 22 22 22 22 22 22 22 22 22 22 23 23 24 24 24 25 25 25 25 26 26 26 26 26 26 26 26 25 25 25 25
29 30 30 31 32 33 34 35 35 35 35 34 34 33 33 32 32 32 32 31 31 30 30 30 29 28 28 27 26 26 25 24 24 24 23 23 23 23 23 23 23 23 23 23 23 23 23 23 23 24 24 25 25 25 25 26 26 26 26 26 26 26 26 25 25 25 25 25 25
30 30 30 31 32 33 34 35 36 36 35 35 34 33 33 33 33 32 32 32 32 31 31 30 29 29 28 28 27 26 26 25 25 24 24 24 24 24 24 24 24 23 23 23 23 23 23 24 24 24 25 25 25 25 25 26 26 26 25 25 25 25 25 25 24 25 25 25 25
30 31 31 32 32 33 34 35 35 35 35 35 35 34 34 33 33 33 32 32 32 31 31 30 30 29 29 28 27 27 26 26 25 25 25 25 24 24 24 24 24 24 23 23 23 24 24 24 24 24 25 25 25 25 25 25 25 25 25 24 24 24 24 23 23 23 23 23 24
31 31 31 32 32 33 33 34 34 35 35 36 35 35 34 34 33 33 32 32 31 31 30 30 30 29 29 28 27 27 26 26 25 25 25 25 24 24 24 24 24 24 24 24 24 24 24 24 24 24 24 25 25 25 25 24 24 24 23 23 23 22 22 22 22 22 22 22 22
31 31 32 32 32 33 33 33 34 35 36 36 36 36 35 34 33 32 31 31 31 31 30 30 30 29 29 28 27 27 26 26 25 25 25 24 24 24 24 24 24 24 24 24 24 24 24 24 24 23 24 24 24 24 24 23 23 22 22 22 21 21 21 20 20 20 20 20 20
31 31 32 32 32 32 32 33 34 35 35 36 36 36 35 34 33 32 31 30 30 30 30 30 30 29 28 28 27 27 26 26 25 25 25 24 24 24 25 25 25 25 25 24 24 24 23 23 23 23 22 23 23 23 22 22 21 21 21 21 20 20 19 19 19 19 18 18 19
31 31 31 31 32 32 32 33 33 34 35 36 36 36 35 34 33 32 31 30 30 29 29 29 29 28 28 27 27 26 26 26 25 25 25 25 25 25 25 25 25 25 24 24 23 23 22 22 22 21 21 21 21 21 21 21 20 20 20 19 19 19 18 18 18 18 17 17 17
31 30 31 31 31 31 31 32 32 33 34 36 36 36 35 34 32 31 30 29 28 28 29 28 28 28 28 27 27 26 26 26 25 25 25 25 25 25 25 25 25 24 23 22 22 22 21 21 21 20 20 20 21 20 20 20 20 19 19 19 19 18 18 18 17 17 16 16 16
30 30 30 30 30 31 31 31 32 33 34 35 36 36 35 33 32 30 29 28 28 28 28 28 28 28 28 27 27 27 26 26 26 25 25 25 25 25 25 24 24 23 22 21 21 20 20 20 20 20 20 20 20 20 19 19 19 19 18 18 18 18 18 17 17 16 16 16 15
30 29 30 30 30 30 30 30 31 32 33 34 34 34 34 33 31 29 28 28 28 28 28 28 28 28 28 27 27 26 26 26 26 26 25 25 25 24 24 23 22 21 21 20 20 20 19 19 19 19 19 19 19 19 19 18 18 18 18 18 18 17 17 16 16 16 15 15 15
29 29 29 30 30 30 30 30 30 31 32 32 33 33 33 32 30 29 29 28 28 28 28 28 28 28 27 27 26 26 26 26 26 25 25 25 24 23 22 22 21 20 20 19 19 19 19 19 19 19 19 19 18 18 18 17 17 17 17 17 17 17 16 16 15 15 15 14 14
29 29 29 29 29 29 29 29 29 30 30 31 31 32 31 31 30 29 28 28 28 28 27 27 27 27 26 26 26 26 25 25 25 25 24 23 22 22 21 20 20 19 19 19 18 18 18 18 18 18 18 17 17 17 16 16 17 17 17 17 16 16 16 15 14 14 14 14 14
29 29 29 28 28 28 28 28 28 28 28 29 30 30 30 30 29 28 28 27 27 27 27 26 26 26 26 26 25 25 25 25 24 23 23 22 21 20 20 20 19 19 18 18 18 17 17 17 17 17 16 16 16 16 15 16 16 16 16 16 16 15 15 14 14 14 13 13 13
28 28 28 27 27 27 26 26 26 26 27 27 28 29 29 28 28 28 27 27 26 26 26 26 26 26 25 25 25 25 24 24 23 22 21 20 20 20 19 19 18 18 17 17 16 16 16 16 16 15 15 15 15 15 15 15 16 16 16 16 15 15 14 14 14 14 13 13 13
Wind_Direction
229 230 230 231 232 233 235 237 238 240 241 243 245 247 248 249 250 251 252 253 255 256 256 256 256 256 255 255 256 256 256 256 256 257 259 260 261 261 261 260 257 256 254 254 252 251 250 250 250 249 249 249 249 250 251 252 253 254 255 257 259 262 266 269 272 274 276 276 276
232 232 232 233 234 235 236 237 239 240 242 243 245 247 249 250 251 252 253 254 255 256 256 257 257 256 257 257 257 257 257 256 256 258 259 260 261 261 261 259 257 256 255 255 254 253 252 251 250 250 249 249 250 251 252 254 256 257 259 261 263 267 269 272 274 276 276 277 277
234 234 234 235 236 236 238 239 240 242 243 245 246 248 250 251 252 253 254 254 255 255 256 257 257 257 257 258 258 258 257 256 256 257 258 259 260 260 259 258 256 255 255 255 255 254 253 252 251 251 251 251 252 253 254 256 258 260 262 264 266 268 270 272 274 274 275 276 277
237 237 237 237 238 239 240 241 243 244 245 246 248 249 250 251 252 253 253 254 254 255 256 257 257 258 258 258 258 258 257 256 255 255 256 257 258 259 258 257 256 255 256 256 255 255 254 253 252 252 252 252 253 254 256 257 259 261 263 265 267 268 269 271 271 272 273 275 276
240 239 239 240 241 242 243 244 245 245 246 247 248 249 250 251 252 252 253 253 254 255 256 257 258 258 258 258 257 256 255 255 255 255 255 256 257 258 258 257 256 256 256 257 256 255 254 253 253 253 253 253 254 255 257 258 259 260 262 263 265 267 268 269 269 270 272 273 275
242 241 240 241 241 243 244 245 245 246 247 248 248 249 250 251 251 252 253 253 254 255 256 257 257 257 258 257 256 256 255 255 255 256 256 257 258 258 258 258 257 257 257 256 256 256 255 254 254 253 254 254 255 256 257 259 259 260 261 262 264 266 267 268 269 270 271 273 274
244 243 242 242 242 243 244 245 246 246 247 248 248 250 250 251 252 252 253 254 255 255 256 256 257 257 257 257 257 256 256 257 257 258 259 259 259 259 258 258 257 257 256 256 255 255 255 254 254 254 254 255 256 257 258 259 260 260 261 262 264 266 267 268 269 270 271 273 273
245 245 244 243 243 244 245 246 246 247 247 248 249 250 251 251 252 252 253 253 254 254 255 256 256 256 257 257 258 258 258 259 259 260 260 260 259 259 258 257 257 256 255 254 254 254 254 254 254 255 255 256 256 257 258 260 261 261 262 264 265 267 268 269 270 271 272 272 273
245 245 245 244 244 244 245 246 246 247 247 248 249 249 250 251 251 251 251 252 253 254 254 255 255 256 256 257 258 259 260 261 261 260 260 260 259 258 257 256 255 254 254 253 253 253 253 254 254 255 255 256 257 258 259 260 262 263 264 266 267 268 269 270 271 272 272 273 273
245 245 245 244 244 245 245 245 246 246 247 247 248 248 249 249 249 249 250 250 251 252 252 253 254 255 256 257 258 259 260 261 260 260 259 258 258 257 256 255 254 253 252 252 251 252 252 253 254 255 256 256 257 258 260 261 263 264 266 267 268 270 271 271 272 272 273 273 274
245 245 245 245 244 244 244 245 245 245 246 246 246 247 247 247 247 248 248 248 248 249 250 252 253 254 255 256 257 258 259 259 259 259 258 257 256 256 255 253 252 251 251 251 250 250 251 251 252 254 255 256 258 259 261 262 264 265 266 267 269 270 271 272 272 272 273 273 273
245 245 245 245 244 244 244 244 244 245 245 245 245 245 246 246 246 246 246 246 246 247 249 250 252 253 254 255 255 256 257 258 258 257 256 256 255 254 253 252 251 250 249 249 249 249 249 250 251 253 255 257 258 260 262 263 264 265 266 267 268 270 271 272 273 272 273 272 273
245 245 245 244 243 243 242 243 243 244 244 244 245 245 245 245 245 245 245 245 245 246 248 249 251 252 253 253 254 255 255 256 256 255 255 254 253 252 252 251 249 248 248 248 248 248 249 250 250 252 255 257 259 260 262 263 263 263 264 265 267 268 270 271 272 272 272 272 272
246 246 246 245 244 243 242 242 243 243 243 244 244 244 245 245 245 244 244 244 245 246 248 249 250 251 251 252 253 253 253 253 253 253 253 252 251 251 250 249 248 247 247 246 246 247 248 249 250 251 253 255 257 259 260 261 261 261 262 263 264 266 268 270 271 272 272 273 273
246 246 247 246 246 244 244 243 243 243 243 244 244 244 245 245 245 245 245 245 245 246 247 248 249 250 250 251 251 251 252 251 251 250 250 249 249 248 248 247 246 245 245 245 245 245 246 247 248 250 251 253 254 255 256 257 258 258 259 260 261 263 265 267 269 271 273 274 274
244 245 246 246 246 245 245 244 244 244 244 244 244 244 244 245 245 245 245 245 246 247 247 248 249 249 249 250 250 250 250 249 248 248 247 246 246 245 245 244 244 243 243 242 242 243 243 244 245 246 248 249 250 251 252 253 254 255 256 258 259 261 263 265 268 270 272 274 275
243 244 244 245 245 245 245 245 245 245 245 245 245 245 245 245 245 245 245 246 246 246 247 248 248 248 248 248 248 248 247 247 246 245 244 243 243 242 241 241 241 240 240 240 240 239 240 241 242 243 245 245 247 248 249 250 252 253 255 256 258 260 262 264 266 268 270 272 273
242 243 244 244 245 245 245 245 245 245 245 246 246 246 246 246 246 246 246 246 246 247 247 248 248 248 247 247 247 246 245 244 243 242 241 240 239 238 238 237 237 236 236 236 236 237 237 239 240 241 243 245 247 248 250 251 252 253 254 255 257 258 260 262 264 265 267 268 270
243 244 244 245 245 245 245 245 245 246 246 246 247 247 246 246 246 246 246 246 246 246 247 247 247 247 246 246 245 244 243 242 241 239 237 236 235 234 234 233 233 233 234 235 235 236 237 238 240 241 244 246 249 251 252 254 254 255 256 256 257 257 259 260 262 263 264 266 267
245 245 246 246 246 246 246 246 246 246 247 247 247 247 247 246 246 246 246 246 246 246 246 246 246 245 245 244 243 242 241 239 237 236 234 233 232 232 232 232 232 233 234 235 236 237 239 241 242 244 246 248 251 253 255 256 257 257 258 258 258 258 259 260 260 261 263 264 265
248 248 248 248 248 247 247 247 247 247 247 247 247 247 247 246 246 246 246 246 246 246 245 245 245 244 243 243 242 241 239 237 235 234 232 232 231 231 231 232 233 234 235 237 239 241 242 244 245 247 248 250 252 254 256 257 259 260 260 260 261 261 261 261 261 261 262 263 264
250 250 250 249 249 248 247 247 247 246 246 247 247 247 247 246 246 245 245 245 245 244 244 244 243 243 242 242 241 239 238 236 234 232 232 232 232 232 233 233 235 236 238 240 242 244 245 247 249 250 251 252 253 254 256 257 258 260 261 262 262 262 263 263 263 263 263 263 264
252 252 251 250 249 248 247 246 245 245 245 246 246 246 246 246 245 245 244 243 243 243 243 242 242 242 241 240 239 238 236 235 233 233 232 232 233 234 234 236 237 239 241 243 245 247 248 250 251 252 253 253 254 255 256 257 258 259 260 261 262 263 263 264 264 264 264 264 264
251 251 251 250 249 247 246 245 244 244 244 244 245 245 245 245 244 244 243 242 242 242 242 241 241 241 240 240 238 237 236 235 234 233 233 234 235 236 237 239 240 242 244 245 247 249 251 252 253 254 254 255 255 256 256 257 258 259 260 260 261 262 263 263 264 264 265 265 265
249 250 250 249 248 247 245 244 243 243 242 243 243 244 244 244 244 243 242 242 242 241 241 240 240 240 240 239 238 237 236 236 235 235 235 236 237 238 240 241 243 244 246 248 249 251 252 253 254 255 255 255 256 257 257 258 259 259 260 261 261 262 262 263 263 264 264 265 265
248 248 248 248 247 246 245 244 243 242 242 242 242 243 243 243 242 242 242 241 241 240 240 240 240 240 239 239 238 238 237 237 237 237 237 237 239 240 241 243 245 246 248 249 251 252 253 254 254 255 255 255 256 257 258 258 259 260 260 261 261 262 262 263 263 264 264 264 265
246 247 247 247 247 246 245 244 243 242 241 241 241 241 241 241 241 241 241 240 240 240 239 239 239 239 240 239 239 238 238 238 238 238 239 240 241 242 243 245 246 247 249 250 251 252 253 253 254 254 254 255 256 256 257 258 259 260 260 261 262 263 263 264 265 265 265 265 265
245 246 246 246 246 245 245 243 242 241 240 239 239 240 240 240 240 240 239 239 239 239 238 238 239 239 239 239 239 239 239 239 240 240 241 242 243 244 245 246 247 248 249 250 250 251 252 252 253 253 254 254 255 256 257 258 259 260 260 261 262 263 264 265 266 266 266 266 265
244 245 245 245 245 245 244 243 241 240 239 238 238 238 238 238 238 238 238 238 238 238 238 238 238 239 239 239 240 240 240 241 241 242 243 244 245 246 246 247 248 248 248 249 249 250 250 251 252 253 254 255 255 256 257 258 259 260 261 262 263 264 265 266 266 266 267 267 266
243 243 243 244 244 244 243 242 241 239 238 237 237 237 237 237 237 237 237 237 237 237 238 238 238 239 239 240 240 241 241 242 243 244 244 245 246 246 247 247 247 248 248 248 248 249 250 251 252 253 254 256 256 257 258 259 260 261 262 263 264 265 265 266 266 266 266 267 267
242 242 242 243 243 243 243 242 241 239 237 236 235 235 235 235 236 236 236 237 237 238 238 238 238 239 239 240 241 242 243 244 244 245 245 246 246 246 246 246 246 247 247 248 248 249 250 251 252 253 254 256 258 259 259 260 261 262 263 263 264 264 264 265 265 265 266 266 266
241 242 242 242 242 242 242 241 240 238 236 235 234 234 234 234 235 236 236 237 237 237 237 238 238 238 239 240 241 242 243 244 245 245 245 245 245 245 245 245 246 247 247 248 249 250 251 251 252 253 254 255 257 259 260 260 261 262 262 263 263 263 263 264 264 264 264 264 264
241 242 242 242 242 242 241 240 239 237 235 234 233 233 233 233 234 235 236 236 237 237 237 238 238 239 239 240 241 242 243 244 244 245 245 244 244 245 245 245 246 247 248 249 250 251 251 251 252 252 252 254 255 257 259 260 260 261 262 262 263 263 263 263 263 263 263 263 262
241 242 242 242 241 241 240 239 237 235 234 233 232 232 232 232 233 234 235 236 237 237 238 239 239 239 240 241 242 242 243 243 243 243 243 243 244 244 245 246 248 249 249 250 250 250 250 250 250 250 250 251 253 255 257 258 259 260 261 262 262 262 262 262 262 262 262 261 261
242 242 243 242 241 240 239 237 235 234 232 231 230 230 230 231 232 234 235 237 238 239 239 239 239 239 240 240 241 241 241 241 242 242 242 243 244 245 246 248 249 249 249 248 248 248 248 248 248 248 249 249 251 253 255 257 258 259 260 261 261 261 261 261 261 261 261 261 260
243 243 243 242 241 239 237 235 234 232 231 230 229 229 229 230 232 234 236 238 239 239 239 239 238 239 239 239 239 239 240 240 241 241 242 243 244 245 247 247 248 247 247 246 245 245 245 245 245 246 247 248 250 252 254 256 257 258 259 259 260 260 260 260 260 260 260 260 260
243 244 244 242 240 238 236 234 232 230 229 228 228 228 229 230 232 235 237 239 240 239 239 238 238 238 238 238 239 239 240 240 241 242 242 243 244 244 245 245 245 244 243 242 241 241 242 242 243 244 245 247 249 251 253 254 255 256 257 258 258 258 258 258 259 259 259 260 260
244 244 244 242 240 237 235 232 231 229 228 227 227 228 229 231 233 236 238 239 239 239 238 237 237 237 238 238 239 239 240 240 241 241 242 242 242 242 242 241 240 240 239 238 238 239 239 240 241 243 244 246 248 250 251 252 253 254 255 256 256 256 256 256 257 258 258 259 260
244 244 244 242 239 236 233 231 229 228 227 227 227 228 230 232 234 237 239 240 239 239 238 238 237 237 238 238 238 239 239 239 239 240 240 239 239 238 237 237 236 236 235 235 235 236 237 238 239 241 243 244 246 247 249 250 251 252 253 254 254 255 255 256 256 257 258 259 260
244 244 243 241 237 234 232 230 228 227 227 227 228 229 231 233 236 238 239 239 238 237 237 237 237 237 237 237 237 237 237 237 236 236 236 235 234 233 233 233 233 233 233 233 233 233 234 235 237 238 240 241 243 245 246 248 250 251 252 253 254 255 256 257 257 258 258 259 260
243 243 242 239 236 233 230 229 227 227 227 228 229 230 232 235 237 238 238 237 236 236 235 235 235 235 236 235 235 234 234 233 232 232 231 230 229 230 230 230 230 230 230 229 229 229 230 232 234 236 238 240 242 244 246 248 250 252 253 255 257 259 260 260 261 261 261 262 263
Height
1474 1475 1476 1476 1477 1477 1477 1478 1478 1479 1479 1480 1480 1481 1481 1482 1482 1482 1483 1483 1484 1484 1485 1485 1486 1486 1487 1487 1487 1488 1488 1488 1489 1489 1489 1490 1490 1491 1491 1492 1492 1492 1493 1493 1494 1494 1494 1495 1495 1495 1496 1496 1496 1496 1497 1497 1497 1497 1497 1497 1497 1497 1497 1498 1498 1498 1498 1498 1498
1473 1474 1474 1475 1475 1476 1476 1477 1477 1478 1478 1479 1479 1479 1480 1480 1481 1482 1482 1482 1482 1483 1483 1484 1485 1485 1486 1486 1487 1487 1487 1487 1488 1488 1488 1488 1489 1489 1490 1490 1491 1491 1492 1492 1492 1493 1493 1493 1494 1494 1494 1495 1495 1495 1495 1496 1496 1496 1496 1496 1496 1496 1496 1497 1497 1497 1497 1497 1497
1472 1473 1473 1473 1474 1474 1475 1475 1476 1476 1477 1477 1478 1478 1479 1479 1480 1480 1481 1481 1482 1482 1482 1483 1483 1484 1485 1485 1486 1486 1486 1487 1487 1487 1487 1487 1488 1488 1489 1489 1490 1490 1490 1491 1491 1491 1492 1492 1492 1493 1493 1493 1494 1494 1494 1494 1494 1495 1495 1495 1495 1495 1495 1495 1495 1495 1495 1495 1495
1471 1471 1472 1472 1472 1473 1473 1474 1474 1475 1476 1476 1477 1477 1477 1478 1478 1479 1479 1480 1481 1481 1482 1482 1482 1483 1483 1484 1484 1485 1485 1485 1486 1486 1486 1486 1487 1487 1487 1488 1488 1488 1489 1489 1489 1490 1490 1491 1491 1491 1492 1492 1492 1492 1492 1493 1493 1493 1493 1493 1493 1493 1494 1494 1494 1494 1494 1494 1494
1469 1469 1470 1471 1471 1472 1472 1472 1473 1474 1474 1475 1475 1475 1476 1477 1477 1477 1478 1478 1479 1480 1480 1481 1481 1482 1482 1483 1483 1483 1484 1484 1484 1485 1485 1485 1485 1486 1486 1486 1487 1487 1487 1487 1488 1488 1489 1489 1490 1490 1490 1490 1491 1491 1491 1492 1492 1492 1492 1492 1492 1492 1492 1492 1492 1492 1492 1492 1492
1467 1468 1468 1469 1470 1470 1471 1471 1472 1472 1473 1473 1473 1474 1474 1475 1476 1476 1477 1477 1478 1478 1479 1480 1480 1481 1481 1482 1482 1482 1482 1483 1483 1483 1484 1484 1484 1484 1485 1485 1485 1485 1486 1486 1486 1487 1487 1487 1488 1488 1489 1489 1489 1489 1490 1490 1490 1490 1491 1491 1491 1491 1491 1491 1491 1491 1491 1491 1491
1465 1466 1467 1467 1468 1468 1469 1469 1470 1471 1471 1472 1472 1472 1473 1474 1474 1475 1476 1476 1477 1477 1477 1478 1479 1479 1480 1480 1480 1481 1481 1481 1482 1482 1482 1482 1483 1483 1483 1483 1484 1484 1484 1485 1485 1485 1486 1486 1487 1487 1487 1487 1488 1488 1488 1488 1489 1489 1489 1489 1489 1489 1490 1490 1490 1490 1490 1490 1490
1463 1464 1465 1466 1466 1467 1467 1468 1468 1469 1470 1470 1471 1471 1472 1472 1473 1474 1474 1475 1475 1476 1476 1477 1477 1478 1478 1478 1479 1479 1479 1480 1480 1481 1481 1481 1481 1482 1482 1482 1482 1482 1483 1483 1484 1484 1484 1485 1485 1485 1486 1486 1486 1487 1487 1487 1487 1487 1487 1488 1488 1488 1488 1488 1489 1489 1489 1489 1489
1462 1462 1463 1464 1465 1465 1466 1466 1467 1467 1468 1468 1469 1470 1470 1471 1472 1472 1473 1473 1474 1474 1475 1475 1476 1476 1477 1477 1477 1477 1478 1478 1479 1479 1479 1480 1480 1480 1480 1481 1481 1481 1482 1482 1482 1482 1483 1483 1484 1484 1484 1485 1485 1485 1485 1486 1486 1486 1486 1486 1487 1487 1487 1487 1487 1487 1487 1487 1487
1459 1460 1461 1462 1463 1463 1464 1464 1465 1466 1466 1467 1467 1468 1469 1469 1470 1471 1471 1472 1472 1473 1473 1473 1474 1474 1475 1475 1476 1476 1476 1477 1477 1477 1478 1478 1478 1478 1479 1479 1479 1480 1480 1481 1481 1481 1482 1482 1482 1482 1483 1483 1483 1483 1484 1484 1484 1484 1485 1485 1485 1485 1486 1486 1486 1486 1486 1486 1487
1457 1458 1459 1460 1461 1462 1462 1462 1463 1464 1464 1465 1466 1466 1467 1467 1468 1469 1470 1470 1471 1471 1471 1472 1472 1473 1473 1474 1474 1474 1475 1475 1476 1476 1476 1476 1477 1477 1477 1477 1478 1478 1479 1479 1479 1480 1480 1481 1481 1481 1481 1482 1482 1482 1482 1483 1483 1483 1483 1483 1484 1484 1484 1484 1485 1485 1485 1485 1485
1456 1457 1457 1458 1459 1460 1460 1461 1461 1462 1462 1463 1463 1464 1465 1466 1467 1467 1468 1468 1469 1469 1470 1470 1471 1471 1472 1472 1472 1473 1473 1473 1474 1474 1474 1475 1475 1475 1476 1476 1476 1477 1477 1477 1478 1478 1479 1479 1479 1480 1480 1480 1480 1481 1481 1481 1482 1482 1482 1482 1482 1482 1483 1483 1483 1483 1483 1484 1484
1454 1455 1455 1456 1457 1457 1458 1458 1459 1459 1460 1461 1462 1462 1463 1464 1465 1465 1466 1467 1467 1467 1468 1468 1469 1469 1470 1470 1471 1471 1471 1472 1472 1472 1472 1473 1473 1473 1474 1474 1475 1475 1475 1476 1476 1477 1477 1477 1478 1478 1478 1478 1479 1479 1479 1480 1480 1480 1481 1481 1481 1481 1481 1482 1482 1482 1482 1482 1482
1452 1453 1453 1454 1455 1455 1456 1457 1457 1457 1458 1459 1459 1460 1461 1462 1462 1463 1464 1465 1465 1466 1466 1467 1467 1468 1468 1468 1469 1469 1470 1470 1470 1471 1471 1471 1472 1472 1472 1472 1473 1473 1474 1474 1475 1475 1476 1476 1476 1477 1477 1477 1477 1478 1478 1478 1479 1479 1479 1479 1480 1480 1480 1480 1480 1480 1481 1481 1481
1451 1451 1452 1452 1453 1453 1454 1454 1455 1456 1456 1457 1457 1458 1459 1460 1461 1461 1462 1463 1463 1464 1464 1465 1465 1466 1467 1467 1467 1467 1468 1468 1469 1469 1469 1469 1470 1470 1471 1471 1472 1472 1472 1473 1473 1474 1474 1474 1475 1475 1476 1476 1476 1477 1477 1477 1477 1477 1478 1478 1478 1478 1479 1479 1479 1479 1479 1479 1480
1448 1449 1449 1450 1451 1451 1452 1452 1453 1453 1454 1455 1456 1457 1457 1458 1459 1460 1460 1461 1462 1462 1462 1463 1464 1464 1465 1465 1466 1466 1466 1467 1467 1467 1467 1468 1468 1469 1469 1470 1470 1470 1471 1471 1472 1472 1472 1473 1473 1474 1474 1475 1475 1475 1476 1476 1476 1476 1477 1477 1477 1477 1477 1477 1478 1478 1478 1478 1478
1447 1447 1447 1448 1448 1449 1449 1450 1451 1452 1452 1453 1454 1455 1456 1457 1457 1458 1458 1459 1460 1460 1461 1461 1462 1463 1463 1463 1464 1464 1465 1465 1465 1466 1466 1467 1467 1467 1468 1468 1469 1469 1469 1470 1470 1471 1471 1472 1472 1472 1473 1473 1473 1474 1474 1474 1475 1475 1475 1476 1476 1476 1476 1476 1477 1477 1477 1477 1477
1444 1445 1445 1445 1446 1447 1447 1448 1449 1449 1450 1451 1452 1453 1454 1455 1455 1456 1457 1457 1458 1458 1459 1460 1460 1461 1462 1462 1462 1463 1463 1463 1464 1464 1465 1465 1466 1466 1466 1467 1467 1468 1468 1468 1469 1469 1470 1470 1471 1471 1471 1472 1472 1472 1473 1473 1473 1473 1474 1474 1474 1475 1475 1475 1475 1475 1475 1475 1476
1442 1442 1443 1443 1444 1444 1445 1446 1447 1447 1448 1449 1450 1451 1452 1453 1454 1454 1455 1456 1456 1457 1457 1458 1459 1459 1460 1460 1461 1461 1462 1462 1462 1463 1463 1463 1464 1464 1465 1465 1466 1466 1467 1467 1467 1468 1468 1469 1469 1469 1470 1470 1470 1471 1471 1471 1472 1472 1472 1472 1473 1473 1473 1473 1474 1474 1474 1474 1474
1439 1440 1440 1441 1442 1442 1443 1444 1445 1446 1447 1447 1448 1449 1450 1451 1452 1452 1453 1454 1454 1455 1456 1457 1457 1457 1458 1459 1459 1459 1460 1460 1461 1461 1462 1462 1462 1463 1463 1464 1464 1465 1465 1465 1466 1466 1467 1467 1467 1468 1468 1468 1469 1469 1469 1470 1470 1470 1471 1471 1471 1471 1472 1472 1472 1472 1472 1472 1472
1436 1437 1437 1438 1439 1440 1441 1442 1443 1444 1444 1445 1446 1447 1448 1449 1450 1450 1451 1452 1453 1453 1454 1454 1455 1456 1456 1457 1457 1458 1458 1459 1459 1460 1460 1460 1461 1461 1462 1462 1462 1463 1463 1464 1464 1464 1465 1465 1466 1466 1466 1467 1467 1467 1467 1468 1468 1468 1468 1469 1469 1469 1470 1470 1470 1470 1470 1471 1471
1434 1435 1435 1436 1437 1438 1439 1440 1441 1442 1442 1443 1444 1445 1446 1447 1447 1448 1449 1450 1451 1451 1452 1452 1453 1454 1455 1455 1456 1456 1457 1457 1457 1458 1458 1459 1459 1460 1460 1460 1461 1461 1462 1462 1462 1462 1463 1463 1464 1464 1464 1465 1465 1465 1465 1466 1466 1466 1466 1467 1467 1467 1467 1467 1468 1468 1468 1468 1469
1432 1432 1433 1434 1435 1436 1437 1437 1438 1439 1440 1441 1442 1442 1443 1444 1445 1446 1447 1448 1448 1449 1450 1451 1451 1452 1453 1453 1454 1454 1455 1455 1456 1456 1457 1457 1457 1458 1458 1458 1459 1459 1460 1460 1460 1461 1461 1461 1462 1462 1462 1462 1463 1463 1463 1463 1464 1464 1464 1464 1465 1465 1465 1465 1466 1466 1466 1466 1467
1430 1430 1431 1431 1432 1433 1434 1435 1436 1437 1437 1438 1439 1440 1441 1442 1443 1444 1445 1446 1446 1447 1448 1449 1449 1450 1451 1452 1452 1452 1453 1453 1454 1454 1455 1455 1456 1456 1456 1457 1457 1457 1458 1458 1458 1459 1459 1459 1460 1460 1460 1460 1461 1461 1461 1461 1462 1462 1462 1462 1462 1462 1463 1463 1463 1463 1464 1464 1464
1427 1428 1428 1429 1429 1430 1431 1432 1433 1434 1435 1436 1437 1438 1439 1440 1441 1442 1442 1443 1444 1445 1446 1447 1447 1448 1449 1449 1450 1451 1451 1452 1452 1452 1453 1453 1453 1454 1454 1455 1455 1456 1456 1456 1457 1457 1457 1457 1458 1458 1458 1458 1458 1459 1459 1459 1459 1460 1460 1460 1460 1460 1461 1461 1461 1462 1462 1462 1462
1425 1425 1426 1426 1427 1427 1428 1429 1430 1431 1432 1434 1435 1436 1437 1438 1439 1440 1441 1441 1442 1443 1444 1444 1445 1446 1447 1447 1448 1448 1449 1449 1450 1450 1451 1451 1452 1452 1452 1453 1453 1454 1454 1455 1455 1455 1456 1456 1456 1456 1456 1456 1456 1457 1457 1457 1457 1457 1457 1458 1458 1458 1458 1459 1459 1459 1460 1460 1460
1422 1422 1423 1424 1424 1425 1425 1426 1427 1429 1430 1431 1432 1433 1434 1436 1437 1437 1438 1439 1440 1441 1442 1442 1443 1444 1444 1445 1446 1446 1447 1447 1448 1448 1449 1449 1450 1450 1451 1451 1452 1452 1452 1453 1453 1453 1454 1454 1454 1454 1454 1454 1454 1454 1455 1455 1455 1455 1455 1456 1456 1456 1456 1457 1457 1457 1457 1458 1458
1419 1420 1421 1421 1422 1422 1423 1424 1425 1426 1427 1429 1430 1431 1432 1433 1434 1435 1436 1437 1438 1439 1439 1440 1441 1442 1442 1443 1443 1444 1445 1445 1446 1447 1447 1447 1448 1448 1449 1449 1450 1450 1451 1451 1452 1452 1452 1452 1452 1452 1452 1452 1452 1452 1453 1453 1453 1453 1453 1453 1454 1454 1454 1454 1455 1455 1455 1456 1456
1417 1417 1418 1418 1419 1419 1420 1421 1422 1423 1425 1426 1427 1429 1430 1431 1432 1433 1434 1435 1436 1436 1437 1438 1439 1439 1440 1441 1441 1442 1443 1443 1444 1445 1445 1446 1446 1447 1447 1447 1448 1448 1449 1449 1450 1450 1450 1450 1450 1450 1450 1450 1451 1451 1451 1451 1451 1451 1451 1452 1452 1452 1452 1452 1452 1452 1453 1453 1453
1415 1415 1416 1416 1416 1417 1417 1418 1419 1421 1422 1424 1425 1427 1427 1428 1429 1431 1432 1432 1433 1434 1435 1436 1437 1437 1438 1438 1439 1440 1441 1441 1442 1442 1443 1444 1444 1445 1445 1446 1446 1447 1447 1447 1448 1448 1448 1448 1448 1448 1448 1448 1448 1449 1449 1449 1449 1449 1449 1450 1450 1450 1450 1450 1450 1450 1451 1451 1451
1412 1412 1413 1413 1414 1414 1415 1416 1417 1418 1420 1421 1423 1424 1425 1426 1427 1428 1429 1430 1431 1432 1433 1434 1434 1435 1436 1437 1437 1438 1438 1439 1440 1441 1441 1442 1442 1443 1443 1444 1444 1445 1445 1445 1446 1446 1446 1446 1446 1447 1447 1447 1447 1447 1447 1447 1448 1448 1448 1448 1448 1448 1448 1448 1448 1448 1448 1449 1449
1410 1410 1411 1411 1412 1412 1412 1413 1415 1416 1417 1419 1420 1421 1422 1423 1424 1426 1427 1428 1429 1430 1431 1431 1432 1433 1434 1435 1435 1436 1437 1437 1438 1438 1439 1440 1440 1441 1441 1442 1442 1442 1443 1443 1443 1444 1444 1444 1444 1445 1445 1445 1445 1445 1445 1446 1446 1446 1446 1446 1446 1446 1446 1446 1446 1447 1447 1447 1447
1407 1408 1408 1409 1409 1410 1410 1411 1412 1413 1415 1416 1417 1418 1420 1421 1422 1423 1425 1426 1427 1427 1428 1429 1430 1431 1432 1432 1433 1434 1435 1435 1436 1437 1437 1437 1438 1438 1439 1439 1440 1440 1441 1441 1442 1442 1442 1442 1442 1443 1443 1443 1443 1443 1443 1444 1444 1444 1444 1444 1444 1444 1444 1444 1444 1445 1445 1445 1445
1406 1406 1407 1407 1407 1407 1408 1409 1410 1411 1412 1413 1415 1416 1417 1418 1420 1421 1422 1423 1424 1425 1426 1427 1428 1429 1430 1431 1432 1432 1433 1433 1434 1434 1435 1436 1436 1437 1437 1437 1437 1438 1439 1439 1439 1440 1440 1440 1441 1441 1441 1441 1441 1441 1442 1442 1442 1442 1442 1442 1442 1442 1442 1442 1442 1442 1443 1443 1443
1404 1404 1404 1405 1405 1406 1406 1407 1407 1409 1410 1411 1412 1413 1415 1416 1417 1418 1420 1421 1422 1423 1424 1425 1426 1427 1428 1428 1429 1430 1430 1431 1432 1432 1433 1433 1434 1434 1435 1435 1436 1436 1437 1437 1437 1438 1438 1438 1438 1439 1439 1439 1439 1439 1440 1440 1440 1441 1441 1441 1441 1441 1441 1441 1441 1441 1441 1441 1441
1402 1402 1402 1403 1403 1403 1404 1404 1405 1406 1407 1408 1410 1411 1412 1414 1415 1417 1418 1419 1420 1421 1422 1423 1424 1425 1425 1426 1427 1427 1428 1429 1430 1430 1431 1431 1432 1432 1432 1433 1434 1434 1435 1435 1435 1436 1436 1436 1437 1437 1437 1437 1437 1438 1438 1438 1439 1439 1439 1439 1439 1439 1439 1439 1439 1439 1439 1439 1439
1399 1400 1401 1401 1401 1401 1402 1402 1403 1404 1405 1406 1407 1409 1410 1412 1413 1414 1416 1417 1418 1418 1420 1421 1421 1422 1423 1424 1425 1425 1426 1427 1427 1428 1428 1429 1429 1430 1431 1431 1432 1432 1433 1433 1433 1434 1434 1435 1435 1435 1436 1436 1436 1436 1437 1437 1437 1437 1437 1438 1438 1438 1438 1438 1438 1437 1437 1437 1437
1397 1398 1398 1399 1399 1399 1400 1400 1401 1402 1403 1404 1406 1407 1409 1410 1411 1412 1413 1414 1415 1416 1417 1418 1419 1420 1421 1422 1423 1424 1424 1425 1425 1426 1427 1427 1427 1428 1429 1429 1430 1430 1431 1431 1432 1432 1432 1433 1433 1433 1434 1434 1434 1435 1435 1435 1436 1436 1436 1436 1436 1436 1436 1436 1436 1436 1436 1436 1436
1395 1396 1396 1397 1397 1397 1397 1398 1399 1400 1401 1402 1404 1406 1407 1408 1409 1410 1411 1412 1413 1414 1415 1416 1417 1418 1419 1420 1421 1422 1422 1423 1423 1424 1424 1425 1426 1426 1427 1427 1428 1428 1429 1430 1430 1430 1431 1431 1432 1432 1432 1432 1433 1433 1434 1434 1434 1434 1435 1435 1435 1435 1435 1435 1435 1435 1435 1435 1435
1393 1393 1394 1394 1395 1395 1396 1396 1397 1398 1400 1401 1402 1404 1405 1407 1407 1409 1410 1411 1412 1412 1413 1414 1415 1416 1417 1418 1419 1419 1420 1421 1421 1422 1422 1423 1424 1424 1425 1425 1426 1427 1427 1428 1428 1429 1429 1430 1430 1431 1431 1431 1432 1432 1432 1432 1432 1433 1433 1433 1433 1433 1433 1433 1433 1433 1433 1433 1433
1391 1392 1392 1392 1393 1393 1394 1395 1396 1397 1398 1400 1401 1402 1404 1405 1406 1407 1408 1408 1409 1411 1412 1412 1413 1414 1415 1416 1417 1417 1418 1418 1419 1420 1421 1421 1422 1422 1423 1424 1424 1425 1426 1426 1427 1427 1428 1428 1429 1429 1429 1430 1430 1430 1431 1431 1431 1431 1432 1432 1432 1432 1432 1432 1432 1432 1432 1431 1431